Juneau, WI

11:41 AM CST on February 26, 2017 (GMT -0600)
Dodge County

Weather History for KUNU - September, 2013

Change the Weather History Date:

Wednesday, September 18, 2013

  Actual Average Record
Temperature  
Mean Temperature 67 °F -  
Max Temperature 77 °F 69 °F 86 °F (2000)
Min Temperature 57 °F 49 °F 34 °F (1973)
Cooling Degree Days 2    
Growing Degree Days 17 (Base 50)    
Moisture  
Dew Point 58 °F    
Average Humidity 74    
Maximum Humidity 93    
Minimum Humidity 54    
Precipitation  
Precipitation 0.02 in - - ()
Sea Level Pressure  
Sea Level Pressure 30.00 in    
Wind  
Wind Speed 11 mph (SSE)    
Max Wind Speed 18 mph    
Max Gust Speed 23 mph    
Visibility 10 miles    
Events Rain    
Averages and records for this station are not official NWS values.
T = Trace of Precipitation, MM = Missing Value Source: NWS Daily Summary

Daily Weather History Graph

Daily Weather History Graph

Search for Another Location

Airport or City:

Trip Planner

Search our weather history database for the weather conditions in past years. The results will help you decide how hot, cold, wet, or windy it might be!

Date:

Astronomy

Sep. 18, 2013 Rise Set
Actual Time 6:37 AM CDT 6:58 PM CDT
Civil Twilight 6:09 AM CDT 7:27 PM CDT
Nautical Twilight 5:35 AM CDT 8:01 PM CDT
Astronomical Twilight 5:00 AM CDT 8:35 PM CDT
Moon 6:21 PM CDT (9/18) 5:39 AM CDT (9/18)
Length of Visible Light 13h 18m
Length of Day
12h 21m
Waxing Gibbous, 99% of the Moon is Illuminated
Sep 18
Waxing Gibbous
Sep 19
Full
Sep 26
Last Quarter
Oct 4
New
Oct 11
First Quarter

Hourly Weather History & Observations

Time (CDT) Temp. Dew Point Humidity Pressure Visibility Wind Dir Wind Speed Gust Speed Precip Events Conditions
12:15 AM 58.5 °F 52.2 °F 80% 30.11 in 10.0 mi SE 9.2 mph - N/A   Overcast
12:35 AM 58.5 °F 52.3 °F 80% 30.11 in 10.0 mi SE 8.1 mph - N/A   Overcast
12:55 AM 59.0 °F 52.7 °F 80% 30.11 in 10.0 mi SE 9.2 mph - N/A   Overcast
1:15 AM 59.4 °F 52.9 °F 79% 30.10 in 10.0 mi SE 10.4 mph - N/A   Overcast
1:35 AM 59.9 °F 53.1 °F 78% 30.10 in 10.0 mi SE 11.5 mph - N/A   Overcast
1:55 AM 59.9 °F 53.1 °F 78% 30.10 in 10.0 mi SE 10.4 mph - N/A   Overcast
2:15 AM 60.3 °F 52.9 °F 77% 30.10 in 10.0 mi SE 10.4 mph - N/A   Overcast
2:35 AM 60.4 °F 52.7 °F 76% 30.09 in 10.0 mi SSE 13.8 mph - N/A   Overcast
2:55 AM 61.0 °F 51.6 °F 71% 30.09 in 10.0 mi SSE 13.8 mph 19.6 mph N/A   Overcast
3:15 AM 61.0 °F 51.4 °F 71% 30.08 in 10.0 mi SSE 12.7 mph - N/A   Overcast
3:35 AM 60.8 °F 51.8 °F 72% 30.08 in 10.0 mi SSE 12.7 mph - N/A   Overcast
3:55 AM 60.4 °F 51.8 °F 73% 30.08 in 10.0 mi SSE 9.2 mph - N/A   Overcast
4:15 AM 60.3 °F 51.8 °F 74% 30.07 in 10.0 mi SSE 8.1 mph - N/A Rain Light Rain
4:35 AM 59.5 °F 52.5 °F 78% 30.07 in 10.0 mi SE 9.2 mph - N/A   Overcast
4:55 AM 59.9 °F 51.8 °F 75% 30.06 in 10.0 mi SSE 9.2 mph - N/A   Overcast
5:15 AM 60.1 °F 50.9 °F 72% 30.06 in 10.0 mi SSE 11.5 mph - N/A   Overcast
5:35 AM 60.3 °F 50.9 °F 71% 30.06 in 10.0 mi South 10.4 mph - N/A   Overcast
5:55 AM 60.1 °F 51.3 °F 73% 30.06 in 10.0 mi SSE 10.4 mph - N/A Rain Rain
6:15 AM 58.5 °F 52.5 °F 81% 30.06 in 7.0 mi SSE 10.4 mph - 0.01 in Rain Light Rain
6:35 AM 58.1 °F 53.8 °F 86% 30.05 in 10.0 mi SSE 9.2 mph - 0.02 in   Overcast
6:55 AM 57.7 °F 53.8 °F 87% 30.05 in 10.0 mi SSE 11.5 mph - 0.02 in   Overcast
7:15 AM 57.7 °F 54.5 °F 89% 30.05 in 10.0 mi SSE 12.7 mph 16.1 mph N/A   Overcast
7:35 AM 58.1 °F 55.4 °F 91% 30.05 in 10.0 mi SE 10.4 mph - N/A   Mostly Cloudy
7:55 AM 58.3 °F 56.1 °F 93% 30.05 in 10.0 mi SSE 9.2 mph - N/A   Overcast
8:15 AM 58.3 °F 56.3 °F 93% 30.05 in 7.0 mi SSE 8.1 mph - N/A   Mostly Cloudy
8:35 AM 59.0 °F 56.8 °F 93% 30.04 in 10.0 mi SE 8.1 mph - N/A   Scattered Clouds
8:55 AM 60.1 °F 56.3 °F 87% 30.04 in 10.0 mi SSE 11.5 mph 16.1 mph N/A   Mostly Cloudy
9:15 AM 60.8 °F 55.8 °F 83% 30.04 in 10.0 mi SE 10.4 mph - N/A   Mostly Cloudy
9:35 AM 61.9 °F 55.9 °F 81% 30.04 in 10.0 mi SSE 11.5 mph - N/A   Scattered Clouds
9:55 AM 63.9 °F 56.5 °F 77% 30.03 in 10.0 mi SSE 11.5 mph - N/A   Mostly Cloudy
10:15 AM 64.6 °F 55.6 °F 73% 30.03 in 10.0 mi SSE 10.4 mph - N/A   Overcast
10:35 AM 66.7 °F 56.3 °F 69% 30.02 in 10.0 mi SSE 11.5 mph - N/A   Scattered Clouds
10:55 AM 68.0 °F 56.5 °F 67% 30.02 in 10.0 mi SSE 12.7 mph - N/A   Scattered Clouds
11:15 AM 68.9 °F 57.0 °F 66% 30.02 in 10.0 mi SSE 12.7 mph - N/A   Scattered Clouds
11:35 AM 69.6 °F 58.5 °F 68% 30.01 in 10.0 mi SSE 9.2 mph - N/A   Scattered Clouds
11:55 AM 70.7 °F 59.2 °F 67% 30.01 in 10.0 mi SSE 13.8 mph - N/A   Scattered Clouds
12:15 PM 70.7 °F 59.9 °F 69% 30.01 in 10.0 mi South 10.4 mph - N/A   Clear
12:35 PM 73.4 °F 59.9 °F 63% 29.99 in 10.0 mi South 12.7 mph - N/A   Clear
12:55 PM 74.5 °F 60.1 °F 61% 29.97 in 10.0 mi SSE 15.0 mph 18.4 mph N/A   Scattered Clouds
1:15 PM 75.6 °F 61.0 °F 60% 29.97 in 10.0 mi SSW 13.8 mph 21.9 mph N/A   Mostly Cloudy
1:35 PM 76.3 °F 60.1 °F 57% 29.96 in 10.0 mi South 16.1 mph 21.9 mph N/A   Mostly Cloudy
1:55 PM 76.5 °F 60.8 °F 58% 29.95 in 10.0 mi South 15.0 mph 20.7 mph N/A   Scattered Clouds
2:15 PM 76.8 °F 60.3 °F 56% 29.95 in 10.0 mi South 17.3 mph 23.0 mph N/A   Clear
2:35 PM 77.0 °F 60.3 °F 56% 29.94 in 10.0 mi South 13.8 mph - N/A   Clear
2:55 PM 77.2 °F 60.3 °F 56% 29.94 in 10.0 mi South 16.1 mph 21.9 mph N/A   Clear
3:15 PM 76.5 °F 59.4 °F 55% 29.93 in 10.0 mi South 16.1 mph 21.9 mph N/A   Clear
3:35 PM 75.4 °F 59.7 °F 58% 29.92 in 10.0 mi South 16.1 mph 21.9 mph N/A   Clear
3:55 PM 76.8 °F 59.9 °F 56% 29.91 in 10.0 mi South 11.5 mph - N/A   Scattered Clouds
4:15 PM 75.9 °F 59.9 °F 57% 29.91 in 10.0 mi SSE 11.5 mph - N/A   Scattered Clouds
4:35 PM 77.0 °F 59.0 °F 54% 29.92 in 10.0 mi South 15.0 mph 18.4 mph N/A   Clear
4:55 PM 76.3 °F 59.9 °F 57% 29.92 in 10.0 mi South 18.4 mph - N/A   Clear
5:15 PM 75.2 °F 61.0 °F 61% 29.92 in 10.0 mi South 15.0 mph - N/A   Clear
5:35 PM 74.5 °F 60.8 °F 62% 29.92 in 10.0 mi South 12.7 mph 19.6 mph N/A   Clear
5:55 PM 73.8 °F 61.3 °F 65% 29.92 in 10.0 mi South 11.5 mph 18.4 mph N/A   Clear
6:15 PM 72.9 °F 61.7 °F 68% 29.91 in 10.0 mi SSE 10.4 mph - N/A   Clear
6:35 PM 72.0 °F 62.6 °F 72% 29.91 in 10.0 mi SSE 8.1 mph - N/A   Clear
6:55 PM 70.9 °F 62.8 °F 75% 29.91 in 10.0 mi SSE 6.9 mph - N/A   Clear
7:15 PM 70.2 °F 63.1 °F 78% 29.91 in 10.0 mi SSE 8.1 mph - N/A   Clear
7:35 PM 69.8 °F 63.5 °F 80% 29.91 in 10.0 mi SSE 9.2 mph - N/A   Clear
7:55 PM 69.6 °F 63.5 °F 81% 29.92 in 10.0 mi SSE 9.2 mph - N/A   Clear
8:15 PM 69.8 °F 63.5 °F 80% 29.92 in 10.0 mi SSE 10.4 mph - N/A   Clear
8:35 PM 69.3 °F 63.5 °F 82% 29.92 in 10.0 mi SSE 10.4 mph - N/A   Clear
8:55 PM 68.5 °F 63.5 °F 84% 29.92 in 10.0 mi SSE 9.2 mph - N/A   Clear
9:15 PM 68.4 °F 63.5 °F 84% 29.92 in 10.0 mi SSE 9.2 mph - N/A   Clear
9:35 PM 68.5 °F 63.1 °F 83% 29.92 in 10.0 mi SSE 8.1 mph - N/A   Clear
9:55 PM 68.2 °F 63.1 °F 84% 29.92 in 10.0 mi SSE 8.1 mph - N/A   Clear
10:15 PM 68.0 °F 63.3 °F 85% 29.92 in 10.0 mi SSE 6.9 mph - N/A   Clear
10:35 PM 67.5 °F 63.1 °F 86% 29.92 in 10.0 mi SSE 6.9 mph - N/A   Clear
10:55 PM 67.3 °F 63.0 °F 86% 29.92 in 10.0 mi SSE 9.2 mph - N/A   Clear
11:15 PM 67.6 °F 62.8 °F 84% 29.92 in 10.0 mi SSE 10.4 mph 16.1 mph N/A   Clear
11:35 PM 67.1 °F 62.8 °F 86% 29.92 in 10.0 mi SSE 8.1 mph - N/A   Clear
11:55 PM 67.1 °F 62.8 °F 86% 29.92 in 10.0 mi SSE 8.1 mph - N/A   Mostly Cloudy